CW8398 Weather Reports


Display with metric or nautical units.
time (UTC)temp
F
wind
direction
speed
MPH
gust
MPH
rain 1hr
in
rain 24hr
in
rain mn
in
humidity
%
barometer
mb
20260831151803 68 199 6.0 12.0 0.00 0.01 0.00 68 1004.2
20260831151302 68 175 3.0 9.0 0.00 0.01 0.00 69 1003.7
20260831150802 68 173 3.0 6.0 0.00 0.01 0.00 70 1003.7
20260831150302 68 161 1.0 5.0 0.00 0.01 0.00 71 1003.7
20260831145803 68 218 3.0 5.0 0.00 0.01 0.00 70 1003.7
20260831145306 68 238 4.0 7.0 0.00 0.01 0.00 70 1003.7
20260831144803 68 172 3.0 7.0 0.00 0.01 0.00 70 1003.7
20260831144303 69 235 2.0 6.0 0.00 0.01 0.00 71 1003.7
20260831143802 69 210 3.0 8.0 0.00 0.01 0.00 71 1003.7
20260831142802 69 197 4.0 10.0 0.00 0.01 0.00 71 1003.5
20260831142305 69 252 3.0 13.0 0.00 0.01 0.00 71 1003.5
20260831141802 69 244 2.0 6.0 0.00 0.01 0.00 72 1003.5
20260831141302 69 207 2.0 7.0 0.00 0.01 0.00 72 1003.5
20260831140802 69 205 3.0 9.0 0.00 0.01 0.00 73 1003.5
20260831140302 69 199 2.0 12.0 0.00 0.01 0.00 73 1003.5
20260831135802 68 221 3.0 10.0 0.00 0.01 0.00 73 1003.5
20260831135306 68 164 2.0 7.0 0.00 0.01 0.00 75 1003.5
20260831134802 68 211 2.0 12.0 0.00 0.01 0.00 74 1003.5
20260831134302 68 201 2.0 12.0 0.00 0.01 0.00 74 1003.5
20260831133802 68 208 4.0 10.0 0.00 0.02 0.00 75 1003.5
20260831133302 68 240 2.0 7.0 0.00 0.02 0.00 76 1003.5
20260831132802 68 195 2.0 3.0 0.00 0.02 0.00 75 1003.5
20260831132306 68 231 3.0 5.0 0.00 0.02 0.00 75 1003.5
20260831131803 68 196 2.0 8.0 0.00 0.02 0.00 75 1003.5
20260831131302 68 228 2.0 5.0 0.00 0.02 0.00 75 1003.5
20260831130802 68 218 2.0 3.0 0.00 0.02 0.00 75 1003.5
20260831130303 68 229 2.0 5.0 0.00 0.02 0.00 74 1003.5
20260831125802 69 182 3.0 6.0 0.00 0.03 0.00 73 1003.5
20260831125306 69 164 2.0 7.0 0.00 0.03 0.00 73 1003.5
20260831124803 69 205 3.0 6.0 0.00 0.03 0.00 73 1003.5
20260831124302 69 213 2.0 6.0 0.00 0.03 0.00 73 1003.3
20260831123803 69 172 2.0 6.0 0.00 0.03 0.00 72 1003.3
20260831123303 69 196 3.0 9.0 0.00 0.03 0.00 72 1003.3
20260831122802 69 263 2.0 7.0 0.00 0.03 0.00 74 1003.3
20260831121803 69 197 2.0 6.0 0.00 0.04 0.00 74 1003.3
20260831121302 69 159 2.0 7.0 0.00 0.04 0.00 74 1003.3
20260831120802 69 188 2.0 12.0 0.00 0.04 0.00 75 1003.3
20260831120302 69 199 2.0 12.0 0.00 0.04 0.00 76 1003.3
20260831115802 69 228 1.0 7.0 0.00 0.04 0.00 75 1003.3
20260831115305 69 171 1.0 7.0 0.00 0.04 0.00 75 1003.2
20260831114803 69 252 3.0 10.0 0.00 0.04 0.00 75 1003.0
20260831114302 68 198 3.0 9.0 0.00 0.04 0.00 75 1003.0
20260831113302 68 235 3.0 8.0 0.00 0.04 0.00 78 1003.0
20260831112803 68 232 2.0 6.0 0.00 0.04 0.00 78 1003.0
20260831112302 67 257 5.0 9.0 0.00 0.04 0.00 77 1003.0
20260831111802 67 219 5.0 10.0 0.00 0.04 0.00 78 1003.0
20260831111302 67 270 3.0 8.0 0.00 0.04 0.00 79 1003.0
20260831110802 67 253 3.0 8.0 0.00 0.04 0.00 79 1003.0
20260831110302 67 266 2.0 8.0 0.00 0.04 0.00 80 1002.9
20260831105802 67 232 2.0 9.0 0.00 0.04 0.00 81 1002.9
20260831105306 67 279 3.0 8.0 0.00 0.04 0.00 81 1002.9
20260831104803 66 269 3.0 7.0 0.00 0.04 0.00 82 1002.8
20260831104302 66 252 3.0 10.0 0.00 0.04 0.00 82 1002.8
20260831103802 66 245 3.0 10.0 0.00 0.04 0.00 83 1002.8
20260831103303 65 228 3.0 7.0 0.00 0.04 0.00 84 1002.8
20260831102305 65 226 3.0 9.0 0.00 0.04 0.00 85 1002.8
20260831101302 65 208 3.0 7.0 0.00 0.04 0.00 86 1002.8
20260831100802 65 255 2.0 7.0 0.00 0.04 0.00 86 1002.8
20260831095305 64 186 4.0 8.0 0.00 0.04 0.00 89 1002.8
20260831094803 64 215 2.0 7.0 0.00 0.04 0.00 89 1002.8
20260831094303 63 198 2.0 5.0 0.00 0.04 0.00 89 1002.8
20260831093802 63 260 2.0 12.0 0.00 0.04 0.00 89 1002.1
20260831092802 63 245 3.0 8.0 0.00 0.04 0.00 89 1002.1
20260831091803 64 189 4.0 10.0 0.00 0.04 0.00 89 1002.1
20260831091303 64 221 3.0 7.0 0.00 0.04 0.00 89 1002.1
20260831090802 64 222 2.0 7.0 0.00 0.04 0.00 89 1002.1
20260831090302 63 165 2.0 7.0 0.00 0.04 0.00 90 1002.1
20260831085802 63 259 4.0 8.0 0.00 0.04 0.00 91 1002.1
20260831085306 63 270 1.0 8.0 0.00 0.04 0.00 91 1002.1
20260831084802 63 245 2.0 8.0 0.00 0.04 0.00 91 1002.1
20260831084302 63 273 2.0 8.0 0.00 0.04 0.00 91 1002.1
20260831083802 63 273 2.0 7.0 0.00 0.04 0.00 91 1002.1
20260831083303 63 263 3.0 10.0 0.00 0.04 0.00 91 1002.1
20260831082803 63 246 2.0 8.0 0.00 0.04 0.00 91 1002.1
20260831082306 63 238 3.0 8.0 0.00 0.04 0.00 91 1002.1
20260831081303 63 245 3.0 7.0 0.00 0.04 0.00 91 1002.0
20260831080802 63 165 2.0 6.0 0.00 0.04 0.00 90 1001.9
20260831080302 63 213 2.0 14.0 0.00 0.04 0.00 90 1001.8
20260831075306 64 202 4.0 10.0 0.00 0.04 0.00 89 1001.3
20260831074802 64 196 3.0 12.0 0.00 0.04 0.00 90 1001.3
20260831074305 64 207 3.0 9.0 0.00 0.04 0.00 90 1001.3
20260831073802 64 211 4.0 8.0 0.00 0.04 0.00 90 1001.3
20260831073302 64 232 4.0 9.0 0.00 0.04 0.00 90 1001.3
20260831072306 64 205 4.0 8.0 0.00 0.04 0.00 90 1001.3
20260831071802 64 209 3.0 9.0 0.00 0.04 0.00 90 1000.9
20260831070303 64 227 5.0 9.0 0.00 0.04 0.00 91 1000.9
20260831065306 64 215 3.0 6.0 0.00 0.04 0.00 91 999.9
20260831064802 64 235 3.0 10.0 0.00 0.04 0.00 91 999.9
20260831064303 64 241 4.0 10.0 0.00 0.04 0.00 92 999.9
20260831063802 64 221 3.0 10.0 0.00 0.04 0.00 92 999.9
20260831063303 63 265 4.0 12.0 0.00 0.04 0.00 93 999.9
20260831062802 63 220 4.0 12.0 0.00 0.04 0.00 93 999.9
20260831062306 63 270 4.0 12.0 0.00 0.04 0.00 94 999.9
20260831061803 63 225 3.0 6.0 0.00 0.04 0.00 94 999.9
20260831061302 63 229 3.0 7.0 0.00 0.04 0.00 94 999.9
20260831060803 63 261 3.0 8.0 0.00 0.04 0.00 95 999.9
20260831060302 63 185 2.0 8.0 0.00 0.04 0.00 95 999.9
20260831055802 63 199 2.0 6.0 0.00 0.04 0.00 95 999.9
20260831055306 63 198 2.0 3.0 0.00 0.04 0.00 95 999.9
20260831054802 62 202 2.0 6.0 0.00 0.04 0.00 95 999.9
20260831054302 62 205 3.0 8.0 0.00 0.04 0.00 95 999.9
20260831053802 63 202 2.0 6.0 0.00 0.04 0.00 95 999.9
20260831053303 63 180 2.0 6.0 0.00 0.04 0.00 95 999.9
20260831052803 62 190 1.0 3.0 0.00 0.04 0.00 95 999.9
20260831051802 62 210 1.0 3.0 0.00 0.04 0.00 95 999.9
20260831051303 62 186 1.0 3.0 0.00 0.04 0.00 95 999.9
20260831050802 62 257 1.0 5.0 0.00 0.04 0.00 95 999.9
20260831050302 62 223 2.0 5.0 0.00 0.04 0.00 95 999.9
20260831045802 62 158 2.0 6.0 0.00 0.04 0.00 95 999.9
20260831045305 62 209 2.0 3.0 0.00 0.04 0.00 95 999.9
20260831044803 62 186 1.0 3.0 0.00 0.04 0.00 95 999.9
20260831044302 62 182 1.0 3.0 0.00 0.04 0.00 95 999.9
20260831043302 62 189 0.0 3.0 0.00 0.04 0.00 95 999.9
20260831042306 62 199 2.0 5.0 0.00 0.04 0.00 95 999.9
20260831041802 62 213 1.0 3.0 0.00 0.04 0.00 95 999.9
20260831040802 62 202 2.0 6.0 0.00 0.04 0.00 95 999.7
20260831040303 62 225 2.0 3.0 0.00 0.04 0.00 95 999.7
20260831035306 62 212 1.0 3.0 0.00 0.04 0.00 95 999.7
20260831034303 62 199 1.0 3.0 0.00 0.04 0.00 95 999.7
20260831033802 62 179 1.0 3.0 0.00 0.04 0.00 95 999.7
20260831033303 62 165 0.0 2.0 0.00 0.04 0.00 95 999.7
20260831032803 62 165 1.0 2.0 0.00 0.04 0.00 95 999.7
20260831032306 62 165 0.0 1.0 0.00 0.04 0.00 95 999.7
20260831031302 62 165 1.0 2.0 0.00 0.04 0.00 95 999.7
20260831030803 62 165 1.0 2.0 0.00 0.04 0.00 95 999.7
20260831025803 62 165 1.0 2.0 0.00 0.04 0.00 95 999.7
20260831025306 62 165 0.0 1.0 0.00 0.04 0.00 94 999.7
20260831024302 61 165 0.0 1.0 0.00 0.04 0.00 94 999.7
20260831023803 61 165 0.0 1.0 0.00 0.04 0.00 94 999.7
20260831023303 61 165 0.0 1.0 0.00 0.04 0.00 94 999.6
20260831021803 61 165 0.0 1.0 0.00 0.04 0.00 94 999.6
20260831020802 61 165 0.0 0.0 0.00 0.04 0.00 94 1000.0
20260831020302 61 165 0.0 1.0 0.00 0.04 0.00 94 1000.0
20260831015803 61 165 0.0 1.0 0.00 0.04 0.00 94 1000.0
20260831015305 61 165 0.0 0.0 0.00 0.04 0.00 94 1000.0
20260831014803 62 165 0.0 0.0 0.00 0.04 0.00 94 1000.0
20260831014302 62 165 0.0 1.0 0.00 0.04 0.00 94 1000.0
20260831013804 62 165 0.0 1.0 0.00 0.04 0.00 94 1000.0
20260831013302 62 165 0.0 1.0 0.00 0.04 0.00 94 1000.0
20260831012803 62 165 0.0 0.0 0.00 0.04 0.00 94 1000.0
20260831012305 62 165 0.0 0.0 0.00 0.04 0.00 94 1000.0
20260831011803 62 165 0.0 1.0 0.00 0.04 0.00 94 1000.0
20260831011303 62 165 0.0 1.0 0.00 0.04 0.00 94 1000.0
20260831010303 62 165 1.0 2.0 0.00 0.04 0.00 94 1000.0
20260831005306 62 165 1.0 2.0 0.00 0.04 0.00 93 1000.0
20260831003803 62 165 0.0 1.0 0.00 0.04 0.00 93 1000.0
20260831002306 62 166 0.0 1.0 0.00 0.04 0.00 93 1000.0
20260831000803 62 166 0.0 1.0 0.00 0.04 0.00 93 1000.0
20260831000303 62 166 0.0 3.0 0.00 0.04 0.00 93 1000.0
20260830234803 63 166 0.0 1.0 0.00 0.04 0.00 93 1000.0
20260830234303 63 166 0.0 1.0 0.00 0.04 0.00 93 1000.0
20260830233802 63 166 0.0 1.0 0.00 0.04 0.00 93 1000.1
20260830233302 63 166 0.0 1.0 0.00 0.04 0.00 93 1000.1
20260830232802 63 166 0.0 0.0 0.00 0.04 0.00 93 1000.1
20260830231802 63 166 0.0 1.0 0.00 0.04 0.00 93 1000.1
20260830230803 63 166 0.0 1.0 0.00 0.04 0.00 93 1000.4
20260830230303 63 166 0.0 1.0 0.00 0.04 0.00 93 1000.4
20260830225305 63 166 1.0 3.0 0.00 0.04 0.00 94 1000.4
20260830224803 63 166 0.0 3.0 0.00 0.04 0.00 94 1000.4
20260830224303 63 166 0.0 3.0 0.00 0.04 0.00 94 1000.4
20260830223803 63 166 1.0 3.0 0.00 0.04 0.00 94 1000.4
20260830223303 63 171 2.0 3.0 0.00 0.04 0.00 94 1000.4
20260830222803 63 164 2.0 5.0 0.00 0.04 0.00 94 1000.4
20260830222306 63 162 1.0 3.0 0.00 0.04 0.00 94 1000.4
20260830221304 63 144 1.0 6.0 0.00 0.04 0.00 94 1000.4
20260830220817 63 195 1.0 3.0 0.00 0.04 0.00 94 1000.4
20260830220303 63 173 2.0 7.0 0.00 0.04 0.00 94 1000.5
20260830215803 63 209 0.0 2.0 0.00 0.04 0.04 94 1000.5
20260830215305 63 162 1.0 8.0 0.00 0.04 0.04 94 1001.0
20260830214803 63 186 3.0 8.0 0.00 0.04 0.04 93 1001.0
20260830214303 63 150 2.0 7.0 0.00 0.04 0.04 93 1001.0
20260830213303 63 174 1.0 3.0 0.00 0.04 0.04 93 1001.0
20260830212803 63 183 2.0 3.0 0.00 0.04 0.04 93 1001.0
20260830212305 63 163 2.0 6.0 0.00 0.04 0.04 93 1001.0
20260830211303 63 166 2.0 7.0 0.00 0.04 0.04 93 1001.0
20260830210803 63 153 2.0 6.0 0.00 0.04 0.04 94 1001.0
20260830210302 63 163 2.0 7.0 0.00 0.04 0.04 94 1001.0
20260830205803 63 170 3.0 8.0 0.00 0.04 0.04 94 1001.0
20260830203803 63 190 2.0 7.0 0.00 0.04 0.04 94 1001.0
20260830203303 63 181 2.0 5.0 0.00 0.04 0.04 94 1001.0
20260830202305 63 157 1.0 6.0 0.00 0.04 0.04 94 1001.0
20260830201802 63 147 1.0 6.0 0.00 0.04 0.04 94 1001.0
20260830201303 63 184 2.0 6.0 0.00 0.04 0.04 94 1001.3
20260830200803 63 174 2.0 6.0 0.00 0.04 0.04 94 1001.3
20260830200303 63 138 2.0 8.0 0.00 0.04 0.04 94 1001.3
20260830195803 63 177 2.0 7.0 0.00 0.04 0.04 94 1001.3
20260830195305 63 167 2.0 6.0 0.00 0.04 0.04 94 1001.3
20260830194803 63 171 3.0 8.0 0.00 0.04 0.04 94 1001.3
20260830194302 63 165 3.0 8.0 0.00 0.04 0.04 94 1001.3
20260830193803 63 166 2.0 6.0 0.00 0.04 0.04 94 1001.3
20260830193303 63 185 3.0 5.0 0.00 0.04 0.04 94 1001.3
20260830192803 63 161 2.0 7.0 0.00 0.04 0.04 94 1001.3
20260830192305 63 170 2.0 3.0 0.00 0.04 0.04 94 1001.3
20260830191803 63 156 3.0 7.0 0.00 0.04 0.04 94 1001.3
20260830191303 63 173 3.0 6.0 0.00 0.04 0.04 94 1001.3
20260830190803 63 176 2.0 5.0 0.00 0.04 0.04 94 1001.3
20260830190303 63 168 2.0 5.0 0.00 0.05 0.04 94 1001.3
20260830185803 63 166 3.0 5.0 0.00 0.05 0.04 94 1001.3
20260830185306 63 169 2.0 8.0 0.00 0.05 0.04 94 1001.3
20260830184303 63 178 3.0 12.0 0.00 0.05 0.04 94 1001.3
20260830183802 63 168 3.0 12.0 0.00 0.05 0.04 94 1001.3
20260830183303 63 161 2.0 7.0 0.00 0.05 0.04 94 1001.3
20260830182802 63 152 3.0 7.0 0.00 0.05 0.04 93 1001.3
20260830182306 63 162 3.0 7.0 0.00 0.05 0.04 93 1001.3
20260830181803 63 164 4.0 9.0 0.00 0.05 0.04 93 1001.4
20260830181303 63 170 2.0 7.0 0.00 0.05 0.04 93 1001.4
20260830180803 63 159 2.0 7.0 0.00 0.05 0.04 93 1001.4
20260830175803 63 157 2.0 7.0 0.00 0.05 0.04 94 1001.4
20260830175305 63 167 3.0 5.0 0.00 0.05 0.04 94 1001.4
20260830174803 63 155 3.0 6.0 0.00 0.05 0.04 94 1001.4
20260830174303 63 151 2.0 7.0 0.00 0.05 0.04 94 1001.4
20260830173803 63 158 2.0 7.0 0.00 0.05 0.04 94 1001.5
20260830173302 63 161 3.0 10.0 0.00 0.05 0.04 94 1001.5
20260830172803 63 157 3.0 10.0 0.00 0.05 0.04 94 1001.5
20260830172306 63 171 3.0 8.0 0.01 0.05 0.04 94 1001.5
20260830171803 63 179 1.0 6.0 0.01 0.05 0.04 94 1001.5
20260830171303 63 173 2.0 5.0 0.01 0.05 0.04 94 1001.5
20260830170802 63 166 3.0 6.0 0.01 0.05 0.04 93 1001.5
20260830165803 63 183 1.0 5.0 0.01 0.05 0.04 94 1001.8
20260830165306 63 164 1.0 5.0 0.01 0.05 0.04 93 1001.8
20260830164303 63 156 1.0 5.0 0.01 0.05 0.04 93 1001.8
20260830163803 63 172 1.0 2.0 0.01 0.05 0.04 93 1001.8
20260830163303 63 163 1.0 3.0 0.01 0.05 0.04 93 1001.8
20260830162803 63 170 1.0 3.0 0.01 0.05 0.04 93 1001.8
20260830162306 63 165 0.0 2.0 0.00 0.04 0.03 93 1001.8
20260830161803 63 190 1.0 2.0 0.00 0.04 0.03 93 1002.8
20260830161303 63 177 1.0 3.0 0.00 0.04 0.03 93 1002.8
20260830160304 63 175 1.0 2.0 0.00 0.05 0.03 93 1002.8
20260830155803 63 175 0.0 3.0 0.00 0.05 0.03 93 1002.8
20260830154803 63 175 0.0 1.0 0.00 0.05 0.03 93 1002.8
20260830154303 63 175 0.0 1.0 0.00 0.06 0.03 93 1002.8
20260830153803 63 175 0.0 1.0 0.00 0.06 0.03 93 1002.8
20260830153303 63 175 0.0 2.0 0.00 0.06 0.03 93 1002.8
20260830152802 63 175 0.0 2.0 0.00 0.06 0.03 93 1002.8
20260830152306 63 175 1.0 3.0 0.00 0.06 0.03 93 1002.8